| time (UTC) | temp C | wind direction | speed KPH | gust KPH | rain 1hr cm | rain 24hr cm | rain mn cm | humidity % | barometer mb |
| 20260904010050 | 24 | 310 | 0.0 | 6.4 | 0.00 | 0.00 | 0.00 | 34 | 1004.2 |
| 20260904004549 | 25 | 188 | 0.0 | 3.2 | 0.00 | 0.00 | 0.00 | 33 | 1004.3 |
| 20260904003047 | 25 | 296 | 0.0 | 11.3 | 0.00 | 0.00 | 0.00 | 33 | 1004.3 |
| 20260904001546 | 25 | 248 | 0.0 | 6.4 | 0.00 | 0.00 | 0.00 | 36 | 1004.3 |
| 20260904000126 | 24 | 286 | 1.6 | 8.0 | 0.00 | 0.00 | 0.00 | 37 | 1004.4 |
| 20260903234543 | 25 | 178 | 0.0 | 9.7 | 0.00 | 0.00 | 0.00 | 38 | 1004.5 |
| 20260903233042 | 25 | 196 | 0.0 | 6.4 | 0.00 | 0.00 | 0.00 | 38 | 1004.6 |
| 20260903231541 | 25 | 327 | 0.0 | 6.4 | 0.00 | 0.00 | 0.00 | 39 | 1004.8 |
| 20260903230038 | 25 | 265 | 0.0 | 14.5 | 0.00 | 0.00 | 0.00 | 41 | 1005.0 |
| 20260903224545 | 25 | 246 | 0.0 | 4.8 | 0.00 | 0.00 | 0.00 | 41 | 1005.2 |
| 20260903223036 | 25 | 113 | 1.6 | 8.0 | 0.00 | 0.00 | 0.00 | 42 | 1005.4 |
| 20260903221533 | 25 | 121 | 1.6 | 9.7 | 0.00 | 0.00 | 0.00 | 42 | 1005.7 |
| 20260903220033 | 25 | 213 | 1.6 | 12.9 | 0.00 | 0.00 | 0.00 | 43 | 1005.8 |
| 20260903214535 | 25 | 320 | 3.2 | 16.1 | 0.00 | 0.00 | 0.00 | 43 | 1005.7 |
| 20260903213036 | 25 | 80 | 3.2 | 11.3 | 0.00 | 0.00 | 0.00 | 44 | 1005.8 |
| 20260903211536 | 25 | 230 | 1.6 | 14.5 | 0.00 | 0.00 | 0.00 | 44 | 1005.9 |
| 20260903210028 | 25 | 112 | 0.0 | 12.9 | 0.00 | 0.00 | 0.00 | 44 | 1005.9 |
| 20260903204525 | 25 | 190 | 1.6 | 12.9 | 0.00 | 0.00 | 0.00 | 45 | 1006.0 |
| 20260903203026 | 24 | 133 | 0.0 | 12.9 | 0.00 | 0.00 | 0.00 | 46 | 1005.9 |
| 20260903201521 | 24 | 222 | 3.2 | 9.7 | 0.00 | 0.00 | 0.00 | 45 | 1006.0 |
| 20260903200024 | 23 | 140 | 1.6 | 11.3 | 0.00 | 0.00 | 0.00 | 46 | 1006.3 |
| 20260903194523 | 24 | 221 | 1.6 | 8.0 | 0.00 | 0.00 | 0.00 | 43 | 1006.4 |
| 20260903193016 | 23 | 323 | 0.0 | 12.9 | 0.00 | 0.00 | 0.00 | 45 | 1006.5 |
| 20260903191528 | 23 | 215 | 1.6 | 11.3 | 0.00 | 0.00 | 0.00 | 44 | 1006.8 |
| 20260903190011 | 24 | 213 | 0.0 | 8.0 | 0.00 | 0.00 | 0.00 | 45 | 1007.0 |
| 20260903184511 | 23 | 249 | 3.2 | 11.3 | 0.00 | 0.00 | 0.00 | 46 | 1007.1 |
| 20260903183006 | 23 | 208 | 0.0 | 16.1 | 0.00 | 0.00 | 0.00 | 47 | 1007.3 |
| 20260903181603 | 22 | 110 | 0.0 | 12.9 | 0.00 | 0.00 | 0.00 | 48 | 1007.3 |
| 20260903180100 | 22 | 231 | 1.6 | 11.3 | 0.00 | 0.00 | 0.00 | 49 | 1007.2 |
| 20260903180001 | 22 | 129 | 1.6 | 11.3 | 0.00 | 0.00 | 0.00 | 50 | 1007.2 |
| 20260903174557 | 22 | 138 | 1.6 | 9.7 | 0.00 | 0.00 | 0.00 | 52 | 1007.1 |
| 20260903173054 | 21 | 232 | 1.6 | 6.4 | 0.00 | 0.00 | 0.00 | 53 | 1007.3 |
| 20260903171552 | 20 | 235 | 0.0 | 4.8 | 0.00 | 0.00 | 0.00 | 58 | 1007.5 |
| 20260903170145 | 18 | 238 | 0.0 | 8.0 | 0.00 | 0.00 | 0.00 | 62 | 1007.6 |
| 20260903164541 | 16 | 219 | 0.0 | 3.2 | 0.00 | 0.00 | 0.00 | 73 | 1007.8 |
| 20260903163047 | 14 | 219 | 0.0 | 1.6 | 0.00 | 0.00 | 0.00 | 83 | 1007.7 |
| 20260903161532 | 12 | 219 | 0.0 | 0.0 | 0.00 | 0.00 | 0.00 | 87 | 1007.8 |
| 20260903160032 | 12 | 219 | 0.0 | 0.0 | 0.00 | 0.00 | 0.00 | 89 | 1008.0 |
| 20260903154531 | 11 | 219 | 0.0 | 0.0 | 0.00 | 0.00 | 0.00 | 89 | 1008.1 |
| 20260903153029 | 10 | 219 | 0.0 | 0.0 | 0.00 | 0.00 | 0.00 | 89 | 1008.2 |
| 20260903151530 | 10 | 219 | 0.0 | 0.0 | 0.00 | 0.00 | 0.00 | 88 | 1008.2 |
| 20260903150037 | 9 | 219 | 0.0 | 0.0 | 0.00 | 0.00 | 0.00 | 88 | 1008.1 |
| 20260903144528 | 9 | 219 | 0.0 | 0.0 | 0.00 | 0.00 | 0.00 | 88 | 1008.1 |
| 20260903143035 | 8 | 219 | 0.0 | 0.0 | 0.00 | 0.00 | 0.00 | 87 | 1008.0 |
| 20260903141526 | 8 | 219 | 0.0 | 0.0 | 0.00 | 0.00 | 0.00 | 87 | 1007.9 |
| 20260903140026 | 8 | 219 | 0.0 | 0.0 | 0.00 | 0.00 | 0.00 | 87 | 1007.8 |
| 20260903134524 | 8 | 219 | 0.0 | 0.0 | 0.00 | 0.00 | 0.00 | 87 | 1007.8 |
| 20260903133027 | 8 | 219 | 0.0 | 0.0 | 0.00 | 0.00 | 0.00 | 86 | 1007.8 |
| 20260903131523 | 8 | 219 | 0.0 | 0.0 | 0.00 | 0.00 | 0.00 | 86 | 1007.8 |
| 20260903130022 | 8 | 219 | 0.0 | 0.0 | 0.00 | 0.00 | 0.00 | 86 | 1007.8 |
| 20260903124524 | 8 | 219 | 0.0 | 0.0 | 0.00 | 0.00 | 0.00 | 86 | 1007.8 |
| 20260903123027 | 9 | 219 | 0.0 | 0.0 | 0.00 | 0.00 | 0.00 | 85 | 1007.9 |
| 20260903121518 | 9 | 219 | 0.0 | 0.0 | 0.00 | 0.00 | 0.00 | 85 | 1007.8 |
| 20260903120016 | 9 | 219 | 0.0 | 0.0 | 0.00 | 0.00 | 0.00 | 85 | 1008.0 |
| 20260903114514 | 9 | 219 | 0.0 | 0.0 | 0.00 | 0.00 | 0.00 | 84 | 1008.0 |
| 20260903113014 | 9 | 219 | 0.0 | 0.0 | 0.00 | 0.00 | 0.00 | 84 | 1008.1 |
| 20260903111511 | 10 | 219 | 0.0 | 0.0 | 0.00 | 0.00 | 0.00 | 84 | 1008.2 |
| 20260903110009 | 10 | 219 | 0.0 | 0.0 | 0.00 | 0.00 | 0.00 | 83 | 1008.3 |
| 20260903104508 | 10 | 219 | 0.0 | 0.0 | 0.00 | 0.00 | 0.00 | 83 | 1008.3 |
| 20260903103006 | 10 | 219 | 0.0 | 0.0 | 0.00 | 0.00 | 0.00 | 82 | 1008.3 |
| 20260903101504 | 10 | 219 | 0.0 | 0.0 | 0.00 | 0.00 | 0.00 | 82 | 1008.4 |
| 20260903100004 | 10 | 219 | 0.0 | 0.0 | 0.00 | 0.00 | 0.00 | 82 | 1008.5 |
| 20260903094603 | 10 | 219 | 0.0 | 0.0 | 0.00 | 0.00 | 0.00 | 81 | 1008.5 |
| 20260903093126 | 10 | 219 | 0.0 | 0.0 | 0.00 | 0.00 | 0.00 | 81 | 1008.6 |
| 20260903091557 | 10 | 219 | 0.0 | 0.0 | 0.00 | 0.00 | 0.00 | 80 | 1008.6 |
| 20260903090054 | 11 | 219 | 0.0 | 0.0 | 0.00 | 0.00 | 0.00 | 80 | 1008.7 |
| 20260903084552 | 11 | 219 | 0.0 | 0.0 | 0.00 | 0.00 | 0.00 | 79 | 1008.7 |
| 20260903083056 | 11 | 219 | 0.0 | 0.0 | 0.00 | 0.00 | 0.00 | 79 | 1008.8 |
| 20260903081552 | 11 | 219 | 0.0 | 0.0 | 0.00 | 0.00 | 0.00 | 78 | 1008.9 |
| 20260903080046 | 12 | 219 | 0.0 | 0.0 | 0.00 | 0.00 | 0.00 | 78 | 1008.9 |
| 20260903074546 | 12 | 219 | 0.0 | 0.0 | 0.00 | 0.00 | 0.00 | 77 | 1008.8 |
| 20260903073043 | 12 | 219 | 0.0 | 0.0 | 0.00 | 0.00 | 0.00 | 77 | 1008.7 |
| 20260903071554 | 12 | 219 | 0.0 | 0.0 | 0.00 | 0.00 | 0.00 | 76 | 1008.6 |
| 20260903070056 | 12 | 219 | 0.0 | 0.0 | 0.00 | 0.00 | 0.00 | 75 | 1008.7 |
| 20260903064537 | 13 | 219 | 0.0 | 0.0 | 0.00 | 0.00 | 0.00 | 74 | 1008.7 |
| 20260903063040 | 13 | 219 | 0.0 | 0.0 | 0.00 | 0.00 | 0.00 | 73 | 1008.7 |
| 20260903061537 | 13 | 219 | 0.0 | 0.0 | 0.00 | 0.00 | 0.00 | 73 | 1008.8 |
| 20260903060039 | 13 | 219 | 0.0 | 0.0 | 0.00 | 0.00 | 0.00 | 72 | 1008.7 |
| 20260903054543 | 14 | 219 | 0.0 | 1.6 | 0.00 | 0.00 | 0.00 | 71 | 1008.7 |
| 20260903053037 | 14 | 219 | 0.0 | 0.0 | 0.00 | 0.00 | 0.00 | 70 | 1008.9 |
| 20260903051534 | 15 | 219 | 0.0 | 3.2 | 0.00 | 0.00 | 0.00 | 70 | 1008.8 |
| 20260903050040 | 15 | 219 | 0.0 | 3.2 | 0.00 | 0.00 | 0.00 | 69 | 1008.9 |
| 20260903044534 | 15 | 219 | 0.0 | 3.2 | 0.00 | 0.00 | 0.00 | 68 | 1008.9 |
| 20260903043033 | 15 | 219 | 0.0 | 1.6 | 0.00 | 0.00 | 0.00 | 66 | 1008.8 |
| 20260903041534 | 16 | 219 | 0.0 | 1.6 | 0.00 | 0.00 | 0.00 | 65 | 1008.7 |
| 20260903040036 | 16 | 219 | 0.0 | 1.6 | 0.00 | 0.00 | 0.00 | 64 | 1008.7 |
| 20260903034532 | 17 | 219 | 0.0 | 1.6 | 0.00 | 0.00 | 0.00 | 61 | 1008.6 |
| 20260903033032 | 17 | 219 | 0.0 | 1.6 | 0.00 | 0.00 | 0.00 | 60 | 1008.4 |
| 20260903031534 | 18 | 219 | 0.0 | 1.6 | 0.00 | 0.00 | 0.00 | 58 | 1008.3 |
| 20260903030031 | 18 | 219 | 0.0 | 1.6 | 0.00 | 0.00 | 0.00 | 55 | 1008.2 |
| 20260903024530 | 20 | 219 | 0.0 | 1.6 | 0.00 | 0.00 | 0.00 | 53 | 1008.1 |
| 20260903023037 | 21 | 219 | 0.0 | 1.6 | 0.00 | 0.00 | 0.00 | 50 | 1008.1 |
| 20260903021528 | 21 | 219 | 0.0 | 4.8 | 0.00 | 0.00 | 0.00 | 48 | 1008.3 |
| 20260903020026 | 22 | 219 | 0.0 | 4.8 | 0.00 | 0.00 | 0.00 | 45 | 1008.3 |
| 20260903014525 | 22 | 234 | 0.0 | 6.4 | 0.00 | 0.00 | 0.00 | 41 | 1008.3 |
| 20260903013023 | 23 | 167 | 1.6 | 6.4 | 0.00 | 0.00 | 0.00 | 40 | 1008.3 |
| 20260903011524 | 23 | 246 | 0.0 | 4.8 | 0.00 | 0.00 | 0.00 | 39 | 1008.2 |